User: anonymous   Login
Location: Unspecified
(0.0000°N, 0.0000°E)
Time: 19:03:24
(UTC+00:00)
Language:

POPSAT HIP 1 - Orbit

View from above orbital plane
View from above orbital plane
View from above satellite
View from above satellite

Ground track
Ground track

The orbit data is extracted from the following two-line orbital elements,

1 40028U 14033U   17084.73980047 +.00000540 +00000-0 +64598-4 0  9998
2 40028 097.9196 356.1997 0012623 213.8538 146.1876 14.88212920150063
Epoch (UTC): 25 March 2017 17:45:18
Eccentricity: 0.0012623
inclination: 97.9196°
perigee height: 595 km
apogee height: 612 km
right ascension of ascending node: 356.1997°
argument of perigee: 213.8538°
revolutions per day: 14.88212920
mean anomaly at epoch: 146.1876°
orbit number at epoch: 15006

The dashed part of the orbit path shows where the satellite is in the earth's shadow,  

DLR